Wind_Speed
43 42 39 37 35 35 35 35 35 32 31 32 31 31 31 31 33 35 34 32 31 29 27 26 27 27 26 25 23 22 22 23 23 23 22 21 19 18 18 18 18 16 13 13 15 16 16 16 15 15 15 17 17 17 18 19 19 18 18 18 18 19 21 22 21 19 16 17 17 17 20 20 20 21 18 15 14 14 13 13 13 14 15 16 17 18
43 41 37 36 37 37 35 35 34 31 31 32 33 34 33 30 31 34 35 34 32 29 27 27 27 27 25 23 23 23 25 25 25 24 23 21 20 18 17 17 16 13 11 14 17 17 17 17 16 15 17 18 18 18 18 19 19 20 20 21 21 21 22 23 22 20 18 18 17 17 20 21 20 21 19 16 15 15 16 16 15 14 14 16 18 19
42 39 37 37 38 37 35 34 33 31 33 34 36 36 32 28 29 32 34 35 31 27 27 27 27 27 26 24 25 26 26 26 25 23 22 21 19 18 16 15 14 11 12 16 18 17 16 16 17 18 18 19 19 18 19 20 21 22 22 23 23 22 22 22 22 21 20 19 18 20 23 23 21 20 18 16 15 16 17 19 19 17 16 19 21 21
41 39 39 38 37 36 35 34 33 33 36 37 38 35 30 29 30 32 35 34 29 28 29 29 28 29 28 27 27 27 27 25 24 24 23 20 19 17 15 14 12 12 14 17 18 16 15 15 16 18 20 20 20 20 20 20 21 22 22 23 23 23 23 23 23 23 23 20 19 21 24 26 25 23 19 16 14 15 17 18 20 20 20 20 21 21
42 41 40 37 35 35 34 33 34 37 39 40 39 34 30 31 34 35 36 33 30 30 31 30 30 30 30 29 28 28 26 25 24 22 21 20 19 17 17 15 14 14 15 17 17 15 13 13 15 17 19 21 22 21 20 21 22 22 23 23 23 23 23 24 24 25 25 22 21 22 24 28 29 26 23 18 15 14 15 16 18 20 21 20 20 21
44 40 37 35 34 35 35 35 37 40 41 41 39 34 32 35 37 37 36 33 32 33 32 32 31 32 31 29 29 28 26 25 23 21 19 18 18 17 17 16 15 14 15 17 17 14 12 13 14 16 18 21 22 22 21 21 22 23 23 23 24 23 23 25 27 28 26 22 22 22 22 25 27 24 22 20 17 15 13 13 16 19 21 19 18 19
41 37 35 34 35 37 37 37 39 42 42 42 39 34 35 39 40 39 36 34 35 35 33 33 33 32 32 30 29 28 26 25 23 21 20 18 16 15 14 14 14 14 15 17 16 13 13 14 14 15 18 20 21 21 21 22 22 24 24 24 24 25 25 27 28 29 27 23 22 21 18 20 23 23 21 20 19 17 15 15 17 19 20 18 15 17
38 35 35 36 37 39 39 40 41 42 42 41 37 35 37 41 41 40 37 35 35 35 34 35 34 33 31 31 30 28 26 25 24 23 21 18 15 14 13 13 13 12 14 17 16 14 14 14 13 15 18 20 21 21 21 22 22 23 24 25 25 26 26 28 29 29 28 25 23 21 18 18 19 21 22 21 20 19 19 19 19 20 21 18 16 17
34 33 35 37 39 40 40 40 40 41 40 37 35 36 39 41 42 40 38 35 35 35 36 36 36 34 33 33 31 28 27 26 25 23 19 16 15 14 14 13 12 12 13 16 17 16 15 15 14 15 18 20 21 21 21 21 22 22 23 24 25 27 27 27 28 29 29 27 24 22 21 20 19 19 20 20 20 21 22 21 21 22 23 21 18 18
30 33 36 38 39 38 38 38 39 39 37 34 36 39 41 42 42 40 38 37 36 36 37 37 37 36 35 34 30 26 27 27 24 19 16 15 16 15 15 14 14 14 15 17 18 18 18 17 17 17 19 21 21 21 21 21 21 22 23 24 24 26 27 27 28 29 30 29 25 22 23 24 21 19 20 20 20 22 23 24 23 22 22 23 21 20
31 35 38 39 39 37 36 36 37 37 33 34 38 41 43 43 41 40 38 38 38 38 38 38 38 37 34 33 30 26 26 27 22 18 16 15 15 17 17 17 17 17 17 17 18 19 20 19 19 19 20 20 21 22 22 22 22 23 24 24 24 24 25 26 27 29 30 29 26 23 24 27 26 23 21 21 21 22 22 23 23 22 22 23 23 21
36 38 39 39 38 37 37 38 39 38 36 37 41 43 44 43 42 41 40 40 40 39 38 38 38 36 34 32 29 25 25 25 21 19 17 16 17 19 20 20 20 19 18 18 18 20 21 21 20 20 20 20 20 22 23 23 24 24 24 25 24 24 25 26 28 29 28 28 27 25 25 28 29 27 25 22 21 21 21 21 22 22 23 23 22 21
38 38 38 38 37 37 39 41 41 41 41 42 44 45 46 45 44 43 42 41 40 38 38 38 37 35 34 32 29 26 25 23 20 19 17 17 18 19 20 22 22 21 19 18 19 21 22 21 21 20 20 20 20 21 22 24 24 25 25 25 25 25 25 26 28 28 27 26 26 26 27 28 27 28 26 22 20 20 20 20 21 21 23 23 22 22
38 38 37 35 35 36 39 42 42 43 44 46 47 47 46 45 45 44 44 42 40 38 38 37 36 35 34 32 30 27 26 24 21 19 18 18 18 18 20 22 22 20 18 18 19 21 22 22 21 21 21 21 21 21 23 24 25 26 25 24 25 25 25 26 27 26 25 25 26 25 25 26 25 25 24 22 20 20 19 19 20 21 22 22 22 22
36 36 35 33 33 35 38 40 41 42 44 46 46 44 43 43 44 44 43 41 39 37 36 35 36 36 34 32 31 29 27 24 21 19 19 19 20 20 21 21 20 18 17 18 19 20 21 21 21 21 22 22 22 22 23 24 26 26 26 26 25 25 25 26 27 26 24 24 26 25 23 25 24 23 22 20 20 21 19 19 19 19 21 22 20 19
36 35 34 32 32 33 35 37 39 40 42 43 43 42 43 44 45 44 42 40 38 37 37 36 36 36 34 33 32 30 27 24 22 21 21 21 21 21 21 21 20 18 17 17 18 19 20 20 21 21 21 21 22 22 23 25 26 26 26 25 24 24 24 25 26 27 26 26 28 26 24 26 25 23 21 19 19 20 21 20 20 19 20 21 20 19
36 34 33 32 31 33 34 35 36 36 37 38 39 41 42 44 45 44 42 40 39 39 38 38 38 37 35 33 32 30 27 25 24 24 24 23 21 19 17 18 19 18 17 17 17 18 19 20 20 20 21 21 22 23 24 25 25 24 23 22 22 21 22 23 24 26 26 26 28 27 25 26 27 23 20 19 18 19 21 21 21 22 22 22 22 21
33 32 31 32 32 33 34 35 34 33 32 34 36 38 41 43 45 45 43 42 41 41 40 39 39 38 36 34 32 30 29 27 26 26 25 23 22 19 17 17 17 17 17 17 17 17 18 19 19 20 21 22 23 24 24 23 22 21 20 19 19 19 20 22 23 24 23 23 24 24 24 26 26 23 19 18 19 20 21 21 22 24 24 24 24 23
31 30 31 32 33 34 35 35 34 33 32 33 34 36 40 43 43 44 44 43 42 42 42 40 39 38 36 34 33 32 31 30 29 28 26 23 23 22 21 19 18 18 18 17 17 17 18 19 20 22 23 22 23 23 22 21 20 20 19 18 18 19 20 21 22 22 21 22 22 22 22 24 24 21 18 18 21 22 22 22 22 23 23 24 25 24
31 31 31 32 33 35 35 34 34 34 34 36 36 37 40 41 40 41 42 42 42 43 43 42 40 38 36 35 35 34 33 32 30 28 26 23 22 23 22 22 21 19 18 18 18 18 18 19 21 22 22 22 21 21 20 19 18 18 18 17 17 18 18 19 20 20 19 20 22 22 22 23 23 21 19 19 23 24 24 23 22 21 21 23 25 26
31 31 32 32 34 35 35 34 33 33 34 35 36 37 38 37 37 37 38 39 41 42 42 42 41 39 38 37 37 36 35 33 31 28 26 24 23 23 23 22 21 19 18 17 17 18 18 19 20 20 19 19 20 20 18 17 16 15 16 16 16 16 17 19 19 17 16 16 19 19 21 24 24 22 20 22 25 26 24 23 23 22 21 22 25 27
32 32 33 33 34 35 36 34 33 33 32 32 33 33 33 33 34 34 35 36 38 39 40 40 40 39 39 39 39 38 36 33 30 27 25 23 23 23 22 20 19 18 16 16 16 17 17 18 17 16 16 18 19 18 17 15 14 14 16 16 16 16 18 19 16 14 12 13 14 14 18 23 25 23 23 25 27 26 25 24 24 24 22 23 26 28
34 34 34 35 35 35 35 34 32 32 31 31 31 30 30 31 32 32 32 33 34 35 37 39 39 38 38 38 37 36 34 32 29 26 23 22 22 21 19 17 16 16 15 16 16 17 17 17 16 16 16 17 17 17 16 15 14 15 17 17 17 17 17 17 14 13 12 11 11 13 16 20 23 23 23 25 26 26 26 25 25 25 23 23 26 29
36 36 36 36 35 35 35 34 32 31 31 30 30 29 29 29 29 28 29 30 31 32 33 35 36 36 35 35 35 33 33 31 28 25 22 21 21 19 17 15 15 15 15 16 16 17 17 16 16 16 16 15 16 16 16 16 15 15 16 17 16 16 16 16 13 11 11 11 10 11 14 18 22 22 22 24 27 27 26 25 24 24 22 23 27 29
38 39 39 39 38 37 36 35 34 33 32 31 30 29 28 28 28 28 28 29 30 30 30 30 32 32 31 32 31 30 29 27 24 22 21 20 19 16 15 15 14 15 16 17 17 17 16 16 17 16 15 15 15 16 16 16 15 15 15 15 15 15 16 16 13 10 10 11 10 8 10 14 19 21 23 25 26 26 25 24 24 22 22 23 26 27
37 39 40 41 40 39 38 37 36 35 34 33 32 30 29 30 30 29 29 30 30 30 30 30 30 30 29 29 28 27 25 23 21 20 20 18 16 15 14 15 14 14 16 17 17 17 17 17 17 15 14 14 15 16 16 16 15 15 14 14 14 14 14 14 14 12 11 10 9 8 7 10 14 18 22 24 23 24 24 24 23 22 22 24 26 26
35 37 39 40 39 39 38 37 36 35 34 33 32 31 31 32 32 32 32 31 31 31 31 31 31 29 27 28 27 25 24 22 21 20 19 17 16 15 15 16 15 15 16 17 17 16 16 16 16 15 14 14 14 16 16 16 14 14 14 13 13 14 14 13 13 13 11 9 8 8 8 9 11 14 18 20 20 21 22 23 23 22 22 24 26 26
33 36 38 39 38 36 36 35 34 34 33 33 32 32 32 32 33 33 33 32 31 32 32 32 31 28 25 25 25 23 23 22 20 20 20 18 17 16 16 16 16 16 17 18 18 17 16 15 15 15 15 13 14 15 16 15 14 13 13 13 13 14 14 13 13 13 11 9 9 9 9 10 11 13 15 17 18 20 22 23 24 23 23 24 26 27
32 34 36 37 36 35 34 34 34 33 33 33 32 31 29 29 28 28 29 30 31 33 32 31 30 27 23 23 23 22 22 21 19 19 19 18 18 17 17 17 16 17 19 20 20 19 17 16 15 15 15 14 14 15 15 15 13 12 12 12 13 14 14 14 13 13 11 10 9 10 10 10 12 14 15 16 17 18 19 21 22 23 24 25 27 28
30 33 34 36 36 35 34 34 33 33 33 33 32 30 28 25 24 24 24 26 28 30 31 30 29 26 24 23 23 23 22 19 18 18 18 19 20 19 18 18 18 18 19 20 20 19 18 17 17 16 16 15 14 15 15 15 14 12 11 12 13 14 15 14 13 12 12 11 10 10 9 10 12 14 16 17 17 17 17 17 20 23 23 24 27 29
27 30 32 34 35 35 35 33 33 33 33 33 32 31 28 26 25 24 24 24 25 27 29 29 29 27 26 25 24 24 22 19 19 19 19 20 19 17 16 17 18 20 21 21 20 20 20 19 18 18 17 16 15 15 16 16 15 14 13 12 13 14 15 15 14 13 12 11 11 10 10 11 12 13 15 16 17 17 17 16 18 21 22 23 25 27
23 26 29 30 33 35 35 34 33 32 31 32 32 32 30 28 28 28 28 27 25 25 26 27 28 27 27 26 26 25 23 22 21 21 20 19 17 15 14 14 15 17 19 20 20 20 20 19 19 18 17 16 15 15 16 16 16 15 14 13 13 14 14 15 14 13 12 11 11 10 10 11 11 12 13 15 18 18 17 16 17 19 21 23 25 26
22 24 26 28 30 33 35 35 34 33 32 32 32 32 31 30 29 29 30 29 28 26 25 25 26 27 28 28 27 26 25 24 23 22 20 18 16 15 15 13 11 13 14 15 17 18 18 19 18 17 16 15 15 15 16 17 17 17 16 15 14 14 14 14 14 13 12 11 11 10 10 10 9 9 9 12 16 19 18 17 17 17 20 23 24 23
22 23 25 27 28 31 33 34 35 35 35 34 33 32 31 32 31 29 28 28 28 27 26 25 27 28 29 29 28 27 26 24 23 22 20 17 16 16 16 14 12 13 14 15 17 18 18 18 17 16 16 15 15 15 16 17 18 18 18 17 16 15 15 14 14 13 13 12 11 11 10 9 8 8 7 7 10 14 18 19 20 19 20 22 23 23
23 23 24 25 27 29 30 32 33 35 35 35 35 34 33 32 33 33 30 28 28 28 27 27 28 28 28 28 28 27 26 24 23 23 21 18 17 17 19 18 17 17 16 17 19 20 20 20 19 18 18 18 17 16 17 18 19 19 19 18 17 16 15 15 14 14 14 13 12 11 9 9 8 8 7 5 4 7 12 15 18 20 21 22 23 24
23 23 24 25 26 29 30 31 31 32 32 33 34 35 34 33 33 34 34 33 33 32 32 31 30 30 29 29 28 27 26 26 25 24 22 22 20 20 22 22 22 21 20 20 22 23 23 23 23 22 22 21 20 19 18 19 20 21 20 19 17 16 15 15 15 14 14 14 13 12 10 9 8 8 9 7 5 8 12 13 16 19 20 21 22 24
25 25 25 26 27 29 31 31 32 32 33 33 33 33 33 33 33 33 33 34 34 35 35 35 34 33 32 31 30 30 28 27 26 24 25 26 25 24 24 24 24 24 23 22 23 25 26 26 26 26 25 24 22 20 20 20 20 21 22 21 19 17 16 15 15 15 14 14 14 14 12 10 9 8 9 9 9 12 15 14 15 19 22 21 21 23
30 30 29 30 30 31 31 31 31 32 32 32 32 32 32 33 33 33 32 32 33 34 36 37 37 37 36 34 33 32 31 29 27 25 25 27 28 27 26 25 24 24 24 24 24 26 27 27 26 26 26 24 23 21 21 20 21 21 22 21 20 19 18 17 16 16 16 15 15 15 15 14 13 12 11 11 12 15 15 14 14 16 19 22 23 25
32 32 32 32 32 32 33 33 32 30 29 29 31 32 32 32 32 32 32 32 31 31 34 36 38 39 39 38 36 33 31 30 29 26 25 25 26 27 27 24 23 23 23 23 23 24 25 26 26 26 25 24 23 22 22 22 22 22 22 22 22 22 21 20 19 18 18 18 17 17 17 17 17 16 15 14 15 15 16 16 15 14 16 20 24 27
30 31 31 31 32 32 32 33 32 31 29 28 29 31 32 33 33 33 33 33 31 30 31 34 37 38 37 38 38 36 34 33 31 29 27 24 22 23 25 25 24 23 23 22 22 22 23 24 25 25 25 24 24 23 23 24 24 23 24 24 24 24 23 22 21 20 20 19 19 20 19 18 18 18 17 17 17 17 17 17 17 16 16 16 17 22
28 28 29 30 30 30 30 31 31 31 30 29 27 27 28 30 32 33 32 31 31 30 29 30 34 37 36 34 35 36 36 35 33 32 31 28 24 23 24 26 27 26 25 25 25 24 24 24 25 25 25 25 25 25 26 26 25 25 26 26 26 26 25 24 23 22 21 21 21 22 22 21 20 20 19 19 19 19 19 19 19 19 20 18 16 16
26 27 28 29 29 29 29 29 28 29 29 28 27 26 26 26 27 27 27 27 28 28 26 25 28 33 33 32 31 32 32 32 32 31 31 31 29 27 26 27 28 29 29 29 29 28 27 26 26 26 26 27 27 27 27 26 25 25 26 27 28 28 27 26 25 25 24 23 22 22 23 23 23 23 22 22 22 22 22 21 21 21 21 20 18 15
25 25 26 27 28 28 28 27 27 26 26 26 27 26 26 26 25 24 24 24 24 24 25 24 25 28 30 30 29 29 29 30 30 30 30 30 31 30 29 28 29 29 30 31 31 30 29 29 28 28 28 28 28 29 28 27 27 26 25 26 27 27 27 27 27 27 26 26 25 23 23 23 24 24 24 24 24 24 25 24 24 23 22 20 18 16
25 25 25 25 26 26 25 25 24 24 24 25 26 26 27 27 26 26 26 26 25 24 23 23 23 24 26 27 28 29 30 30 31 31 31 31 31 30 30 30 30 30 30 30 31 31 30 31 31 30 30 30 31 32 32 32 32 31 30 29 29 29 29 28 28 28 27 27 26 25 25 25 25 25 26 26 26 26 26 26 26 25 24 21 19 19
25 25 24 24 24 24 24 23 23 23 24 25 25 26 26 26 27 27 27 28 28 27 26 25 24 24 24 25 26 27 28 30 30 31 31 32 32 32 32 32 31 30 29 30 31 32 33 33 33 33 33 32 33 34 35 35 35 34 33 33 34 34 34 33 32 31 30 29 28 28 28 28 28 28 27 27 27 28 28 27 27 27 26 25 22 21
25 25 25 24 24 24 24 23 24 24 24 24 24 25 25 25 25 25 26 27 27 27 28 28 28 27 26 26 26 27 27 28 29 30 31 31 32 33 33 33 33 33 32 31 32 33 34 35 36 36 36 36 35 35 35 35 36 35 34 34 35 35 35 34 32 31 31 31 30 30 31 31 31 30 30 29 29 29 30 30 30 29 29 29 27 25
25 26 25 25 24 24 24 23 24 25 24 24 24 24 23 23 23 23 23 23 24 25 25 26 27 28 29 29 28 28 28 28 29 30 30 31 32 33 33 34 34 34 34 33 32 31 31 33 35 36 37 37 37 36 36 36 36 36 35 35 35 35 35 34 33 32 31 30 31 31 32 32 32 32 31 31 31 32 32 33 33 33 32 32 31 29
25 25 25 25 24 24 24 24 23 24 24 23 23 22 22 22 21 21 21 21 21 22 23 24 25 26 27 28 28 28 27 27 27 27 28 28 29 30 31 32 32 32 31 31 31 32 32 32 32 33 34 35 35 35 36 37 37 36 35 34 34 35 36 37 36 36 36 36 35 36 36 36 37 36 36 35 35 34 34 34 35 35 34 34 32 32
25 25 25 25 24 24 24 23 23 23 22 22 22 22 22 22 22 22 22 21 20 20 20 21 23 24 25 26 26 26 26 25 25 24 24 24 25 26 27 28 28 28 27 27 29 31 32 31 30 31 32 32 33 33 34 35 35 35 34 33 33 34 36 37 38 38 38 38 38 38 38 39 40 41 41 40 38 37 36 36 35 34 34 34 33 33
26 25 25 25 25 25 24 23 23 23 22 22 22 23 23 23 23 24 23 22 20 19 18 20 21 22 23 24 24 24 25 24 24 23 23 23 23 23 23 24 24 24 24 25 27 28 28 28 27 26 26 26 26 27 28 30 31 31 32 31 31 31 33 34 36 36 37 36 36 35 35 36 38 40 41 41 40 38 37 37 36 36 36 36 37 37
26 25 25 25 26 26 25 24 24 23 23 22 22 23 23 23 23 23 23 23 22 20 19 19 19 18 19 20 21 22 22 22 22 21 21 21 20 20 20 19 20 20 21 22 22 22 22 22 21 20 20 20 20 21 22 23 25 27 28 29 30 30 31 31 33 34 35 35 34 33 33 33 34 36 39 40 40 39 38 38 38 38 38 38 38 38
Wind_Direction
218 217 217 219 219 218 218 219 216 212 209 209 207 205 206 209 216 221 224 223 221 221 223 224 225 226 224 223 223 224 226 226 226 225 223 220 219 226 232 237 243 248 255 260 258 258 264 272 281 286 288 289 288 286 282 278 274 269 266 266 269 274 277 277 277 273 270 269 268 267 264 259 258 259 257 258 263 272 279 278 268 261 261 258 251 249
217 216 215 216 218 216 216 218 215 209 207 205 202 201 202 208 217 221 223 224 224 224 224 221 219 220 220 221 224 225 227 228 227 226 226 226 227 232 238 244 248 253 258 259 259 261 266 274 283 290 293 292 288 284 279 273 269 265 263 263 265 267 269 272 273 270 265 266 267 265 263 259 259 261 260 257 255 259 269 273 270 265 263 260 254 247
215 214 215 216 217 215 213 214 210 204 202 201 199 199 199 205 214 218 221 224 223 219 214 209 208 215 218 218 223 227 228 228 228 228 230 232 234 236 241 246 249 252 255 257 261 265 272 282 292 296 296 293 289 282 275 270 266 264 262 261 260 259 260 262 264 262 264 274 275 269 268 268 268 267 264 260 256 256 265 272 272 266 258 253 252 247
214 213 214 216 216 215 213 210 205 200 200 200 198 197 197 202 207 212 218 220 215 205 199 199 205 214 216 217 223 227 229 230 230 231 234 235 236 236 239 243 245 247 253 259 265 272 283 294 300 301 299 296 292 285 277 270 267 266 264 261 259 257 256 256 256 256 260 273 281 281 283 284 282 279 271 260 250 252 259 267 271 270 266 259 254 248
214 213 214 214 213 213 211 207 201 198 200 201 198 195 193 196 201 208 214 211 201 194 195 200 207 214 217 219 222 226 230 233 233 234 235 236 237 236 238 243 244 247 255 263 268 277 289 295 298 298 296 295 293 291 286 277 270 268 266 263 260 258 257 258 259 258 258 263 275 284 287 286 287 288 280 266 249 243 250 256 262 268 271 265 255 249
213 213 213 212 208 208 208 204 200 199 200 201 197 191 188 193 199 205 210 204 191 188 196 202 207 214 219 221 224 228 231 233 235 238 238 240 241 241 245 250 253 256 260 264 271 281 287 289 293 293 292 291 292 292 290 284 274 268 265 264 261 258 257 259 263 265 265 264 268 279 287 284 285 287 283 275 261 253 257 258 256 263 270 267 255 251
212 212 211 209 205 205 204 201 200 200 201 202 196 188 188 193 199 203 207 202 190 187 196 204 209 217 223 223 226 232 234 234 236 239 241 244 245 246 251 258 262 265 266 267 273 280 281 286 292 289 286 287 289 289 288 284 277 268 263 261 260 258 256 259 263 268 271 270 267 277 293 289 282 282 281 277 270 264 266 266 262 261 267 270 258 250
209 208 206 205 204 203 201 200 200 200 202 202 194 187 190 195 199 203 205 203 195 192 199 205 210 218 225 228 231 237 239 237 235 235 240 246 248 249 254 262 267 268 267 268 272 276 280 285 287 281 279 281 283 284 283 284 283 276 268 263 261 259 258 261 266 273 277 277 273 278 292 290 281 279 280 277 270 265 265 265 265 261 259 264 260 250
205 204 202 202 203 202 201 199 199 200 201 198 190 189 193 196 200 203 204 203 202 201 203 207 212 217 224 232 235 239 241 239 235 235 240 248 252 256 263 270 273 270 267 267 271 277 281 280 275 273 274 277 279 282 284 287 289 287 279 273 269 265 265 267 273 283 286 283 280 279 283 287 284 279 280 281 275 268 268 266 265 262 256 255 257 252
200 199 200 201 201 201 201 199 198 198 198 192 187 191 195 196 200 204 205 205 206 207 207 209 215 218 223 231 233 233 237 238 238 241 246 251 255 258 263 267 267 266 266 267 271 276 278 277 275 273 274 277 282 287 288 287 288 288 287 284 280 276 276 277 279 286 287 285 285 280 275 278 282 283 283 285 282 274 270 268 265 263 257 252 253 252
197 197 198 198 198 199 200 198 197 195 191 187 189 192 195 197 201 205 208 210 210 211 211 212 217 219 221 227 229 229 234 238 242 247 252 259 266 268 266 263 262 263 265 266 268 272 275 279 280 279 277 277 281 285 286 284 282 283 285 286 286 285 286 287 286 286 286 285 285 281 274 273 277 282 285 284 283 277 272 270 266 262 257 252 251 252
197 197 196 197 198 198 196 196 195 191 186 187 191 194 196 198 202 206 209 211 212 212 213 215 218 220 221 226 229 231 235 239 243 250 257 268 279 280 273 265 262 264 266 269 270 272 276 280 283 284 283 282 282 284 284 284 283 281 281 282 285 288 290 291 289 288 288 287 285 280 277 278 279 280 283 283 279 274 270 269 265 258 255 252 247 248
197 196 196 197 199 198 197 196 195 190 186 189 194 196 198 200 202 206 209 211 212 212 215 218 220 223 224 227 231 235 238 240 245 252 261 272 280 281 273 265 263 264 268 272 274 275 277 280 284 286 288 289 287 286 286 287 287 285 283 282 284 286 287 287 287 287 288 285 282 279 278 283 284 279 277 277 274 271 267 265 264 257 252 250 246 243
197 196 197 198 199 199 200 201 198 193 191 194 198 200 201 203 205 208 211 213 213 213 217 220 222 225 228 230 234 238 240 243 247 253 264 274 276 274 270 265 263 266 270 272 273 275 277 281 284 286 289 290 290 289 289 290 292 291 289 287 287 286 284 283 282 284 285 282 279 276 275 279 281 275 270 269 269 267 263 260 259 257 252 249 245 242
199 198 198 197 200 201 203 206 204 198 196 199 203 206 207 209 211 213 215 217 217 217 220 223 225 229 231 234 238 241 242 244 248 255 265 271 270 268 267 264 262 265 267 268 270 272 276 279 283 285 287 287 287 287 289 293 296 295 292 289 288 286 284 280 279 279 278 275 272 269 267 268 270 268 263 261 262 259 254 253 253 254 251 247 244 241
204 202 200 199 202 203 204 208 207 203 201 203 207 210 211 212 213 214 216 217 218 220 223 226 231 234 236 238 241 244 245 247 251 258 265 268 267 265 262 256 256 259 260 262 266 269 274 279 282 284 285 286 287 288 292 297 299 297 293 290 289 288 285 280 276 274 270 266 264 260 258 261 261 258 253 252 256 252 246 246 246 245 244 242 240 236
208 206 204 202 204 205 205 208 209 207 203 204 208 211 213 214 215 215 216 218 219 221 225 229 234 237 239 241 245 248 251 254 256 261 266 267 263 259 253 252 255 257 259 262 266 270 274 278 281 284 287 290 292 294 298 301 301 300 297 294 292 290 287 281 274 271 270 271 270 264 259 260 256 249 245 246 251 247 240 241 241 238 239 238 235 231
205 204 202 200 201 205 207 208 208 206 203 203 207 210 213 216 217 216 216 219 221 225 228 231 235 238 240 243 247 251 255 258 261 264 266 263 257 253 253 258 259 258 260 263 265 268 272 276 281 286 290 294 297 299 301 301 302 301 299 296 294 293 290 285 278 275 272 270 270 266 261 259 251 243 240 243 246 242 237 238 237 236 237 235 232 227
200 198 198 196 197 202 207 210 209 206 203 203 205 209 214 218 219 219 220 222 225 229 231 234 236 240 242 245 249 252 256 259 263 265 262 258 254 255 258 261 259 258 261 263 266 270 273 279 284 288 292 296 298 300 300 301 301 300 298 297 296 295 290 286 282 277 270 263 263 262 255 249 242 238 240 241 241 239 235 234 234 234 235 233 229 225
197 195 194 193 194 199 205 210 211 209 205 203 204 206 212 217 220 222 223 226 229 232 234 236 239 242 245 248 251 254 257 260 263 262 259 256 255 256 258 258 256 257 260 263 269 274 278 283 288 290 292 294 296 298 299 300 300 300 299 296 295 294 290 290 283 269 261 263 267 262 247 234 229 232 240 242 238 236 232 229 227 228 233 234 231 227
195 195 194 193 193 198 203 207 211 213 212 210 210 209 212 216 219 222 224 227 230 234 237 239 241 243 246 249 251 254 257 259 259 258 256 256 257 256 255 254 253 255 258 265 272 277 282 287 291 292 292 291 293 296 297 300 303 303 300 294 295 296 296 301 289 260 254 270 274 261 236 223 221 225 234 238 233 229 226 223 221 224 232 236 233 230
193 194 194 194 194 198 203 206 209 214 215 217 217 217 218 219 220 222 224 226 230 233 237 240 242 243 244 247 249 251 253 254 254 253 252 254 256 257 256 255 257 260 264 270 275 279 283 288 292 292 292 291 292 294 295 298 301 300 296 292 296 301 303 306 292 257 256 280 280 261 233 220 219 221 225 228 227 225 225 224 222 225 232 232 231 231
193 193 194 196 197 198 202 204 207 211 213 215 216 217 220 222 223 225 227 229 231 233 236 238 240 240 241 242 243 244 246 247 248 248 249 251 254 257 258 258 259 263 268 273 276 278 281 285 290 293 293 292 293 294 293 296 297 296 294 290 293 300 302 304 294 265 260 270 268 258 242 229 227 227 226 224 225 228 230 228 227 230 235 231 226 228
193 194 196 198 198 199 201 202 204 208 211 213 215 216 218 223 226 229 231 232 233 233 235 236 237 238 238 238 239 241 243 245 247 248 247 249 253 256 256 255 255 260 265 269 273 276 277 282 291 295 295 295 296 295 293 295 297 295 292 288 288 294 296 298 295 276 264 258 252 254 247 238 237 236 232 228 229 233 235 234 233 236 240 233 224 223
196 197 199 200 200 200 202 203 204 207 211 214 217 218 219 222 225 226 229 231 231 231 231 232 233 235 236 238 239 241 244 246 246 246 246 248 252 254 252 251 252 256 261 265 270 273 275 282 291 294 296 298 299 297 294 295 296 293 291 286 283 286 291 295 295 288 279 265 257 263 255 239 235 233 232 231 231 234 235 234 234 235 236 232 223 222
197 199 202 203 203 204 204 205 206 208 212 216 219 221 221 222 224 225 226 228 228 228 229 229 230 231 232 235 238 240 242 244 244 243 244 246 250 250 251 253 254 257 261 265 269 273 276 282 287 291 296 301 301 299 296 296 294 290 287 283 278 277 282 291 295 295 293 279 266 274 268 240 228 224 225 228 230 233 233 230 228 228 228 226 221 222
198 199 204 205 206 207 208 208 210 211 215 219 222 223 223 224 225 227 228 227 225 226 228 230 231 232 233 237 240 242 243 244 243 241 241 242 246 250 253 256 256 257 261 265 269 273 277 280 284 290 296 299 299 298 296 295 293 288 284 279 274 272 273 283 295 299 299 290 276 275 266 244 232 225 223 226 231 235 235 231 229 230 228 224 221 222
199 200 204 206 205 208 211 211 212 215 218 222 224 224 224 226 227 228 229 229 226 225 227 230 233 234 237 241 243 243 243 242 241 242 242 243 245 248 251 253 255 256 259 263 267 271 274 276 282 290 295 296 294 294 295 296 294 289 286 279 273 271 270 275 288 297 301 298 289 285 273 252 240 234 229 229 232 235 236 235 235 234 232 227 222 223
201 202 206 207 206 207 211 213 214 215 218 221 223 224 226 228 228 229 231 231 230 228 228 232 236 237 237 240 241 241 240 240 243 247 248 249 249 249 251 253 254 255 258 262 265 268 271 274 281 289 293 291 289 290 292 295 296 291 285 279 274 273 271 272 280 290 295 293 289 289 286 268 251 243 237 235 236 238 237 236 234 233 232 229 223 224
203 204 207 209 208 208 211 214 216 217 217 219 223 225 226 227 229 230 232 234 234 233 232 234 236 237 236 236 239 243 244 246 253 258 258 259 259 258 256 254 252 253 256 258 262 267 270 274 281 286 287 284 283 285 289 293 296 293 285 278 275 275 274 275 280 287 291 289 283 281 281 275 262 252 244 240 241 240 236 233 231 230 231 228 224 226
206 208 211 212 211 211 212 215 217 219 220 221 223 224 223 225 229 233 234 236 235 235 237 238 237 238 237 237 241 246 249 255 264 268 269 268 265 261 256 252 251 252 254 256 260 266 270 274 280 284 283 281 281 283 286 290 293 293 288 280 276 276 277 278 280 284 288 288 283 276 274 274 270 261 253 244 240 238 235 232 231 228 227 227 228 229
208 212 215 216 216 216 217 219 220 222 224 225 225 224 221 222 229 234 234 236 237 237 239 242 242 242 241 242 245 248 252 258 264 268 269 267 261 255 250 248 250 251 252 254 259 264 268 273 278 280 280 281 282 283 285 288 290 290 288 284 279 276 277 279 281 283 288 291 288 279 271 272 271 266 259 249 239 237 236 233 230 228 226 228 232 234
210 212 216 219 220 222 222 223 224 223 224 227 229 229 225 223 229 233 231 232 237 239 240 244 245 245 244 244 246 248 252 257 261 264 266 262 257 249 239 234 242 250 252 254 258 263 267 271 274 276 277 278 280 282 284 286 287 286 285 283 281 277 276 278 281 284 289 294 293 284 272 271 275 275 272 258 243 237 235 233 230 230 233 232 232 233
214 214 216 217 220 224 225 226 227 226 226 229 233 234 231 227 230 234 233 233 236 238 240 242 244 245 245 246 248 251 254 256 257 260 261 259 253 240 228 229 245 256 257 258 259 261 264 268 269 270 272 273 274 277 279 281 283 284 284 283 282 279 277 276 279 283 287 291 295 292 283 279 283 286 289 281 257 241 236 235 233 233 238 238 235 236
218 219 220 218 219 223 225 227 229 230 231 233 235 238 238 236 234 237 239 239 239 241 243 243 243 244 246 248 250 252 254 254 254 256 258 257 251 237 231 240 255 262 263 262 261 261 260 262 264 267 268 270 272 273 274 274 276 279 281 282 281 280 279 278 278 280 284 287 291 294 290 282 280 279 278 279 279 263 249 239 236 237 240 239 236 241
219 221 223 224 224 226 227 227 229 232 233 234 235 237 239 240 239 240 242 242 242 244 246 246 245 245 246 248 251 251 252 252 250 253 258 259 253 243 242 249 258 262 263 261 261 263 262 261 264 266 269 271 272 272 271 270 271 273 275 277 278 278 277 277 277 277 279 282 285 288 287 279 274 274 272 262 253 269 269 253 239 240 244 242 237 243
227 228 229 229 230 232 232 231 231 234 235 234 235 237 238 239 241 242 242 243 242 243 244 245 247 248 248 249 250 250 251 250 248 253 262 263 257 250 249 252 256 258 257 254 256 259 261 262 264 267 269 272 273 272 271 269 268 269 271 273 275 275 274 274 275 275 274 275 277 279 279 277 275 276 275 263 245 256 271 267 247 240 241 239 236 240
236 237 237 236 236 236 237 239 239 238 238 238 238 239 238 238 238 240 242 243 243 244 244 244 246 248 248 248 248 248 249 248 248 254 263 264 257 252 251 253 253 253 252 250 251 254 257 260 263 265 268 270 270 270 269 268 267 267 268 270 272 272 271 272 273 273 273 272 271 271 271 273 277 278 276 267 254 253 264 270 262 252 246 240 237 241
239 240 240 239 239 238 239 242 244 245 244 243 242 241 239 237 236 239 242 244 246 250 251 249 246 246 247 247 247 247 248 248 250 254 261 262 256 250 249 250 250 250 249 248 249 251 255 259 261 264 267 269 270 270 269 268 267 265 266 267 268 269 270 270 271 271 272 272 271 270 269 270 274 276 275 272 267 261 263 264 264 268 266 252 242 240
240 240 240 240 240 240 240 241 243 245 246 245 245 244 244 243 243 244 247 249 253 257 258 253 248 246 246 246 247 247 249 250 253 254 256 258 254 247 244 246 248 249 247 246 247 251 256 259 262 265 266 267 268 268 268 267 267 266 265 264 264 266 269 270 272 272 271 273 273 273 272 270 271 273 273 274 275 272 271 270 266 267 273 269 255 245
239 239 239 239 239 240 240 240 241 242 244 245 246 245 245 245 247 249 251 253 254 256 258 255 249 246 246 246 246 246 248 250 252 252 251 252 253 248 245 246 249 250 248 247 250 255 258 260 260 261 262 263 264 264 264 265 267 267 265 263 262 264 267 270 273 274 273 273 273 274 275 273 271 271 270 270 273 273 272 274 273 270 272 277 280 272
238 237 236 237 237 238 238 239 239 239 241 242 243 244 244 244 246 248 250 251 250 251 253 252 247 243 242 244 243 243 245 246 247 248 248 248 249 248 247 247 248 249 250 251 254 257 259 259 257 256 257 259 262 263 262 262 265 267 266 264 263 264 266 269 272 274 275 275 275 275 276 276 275 275 273 271 271 272 271 271 272 272 274 276 280 282
237 236 235 235 236 237 238 239 238 238 239 239 240 241 242 243 244 245 246 247 247 246 245 244 241 239 240 241 242 242 243 243 244 244 245 245 246 246 246 247 247 247 248 251 254 256 257 258 257 255 254 254 256 258 260 260 262 265 268 268 266 266 267 269 270 272 273 273 274 273 274 275 277 278 279 278 275 273 273 273 273 272 274 276 275 273
235 235 234 234 234 235 236 236 236 235 235 236 236 237 238 240 240 241 243 244 245 244 242 240 239 239 239 241 241 241 242 243 243 243 244 244 244 244 245 246 247 247 248 251 253 255 256 256 256 256 255 253 252 254 257 259 260 262 264 266 266 267 268 270 271 272 270 269 270 271 272 274 275 276 277 278 277 275 272 272 273 274 274 272 269 263
234 234 234 234 233 233 232 231 230 229 230 232 233 235 236 236 236 237 239 242 243 243 242 242 241 240 240 240 240 241 242 243 243 244 244 244 245 245 245 247 248 249 251 253 256 257 257 257 257 257 257 256 255 255 257 259 261 262 262 263 264 266 268 270 271 270 268 267 269 271 273 274 275 274 273 272 272 273 272 270 270 271 272 271 268 262
231 232 232 232 231 231 230 229 229 229 230 232 233 234 235 235 235 235 237 239 241 242 242 242 242 242 241 241 241 240 241 241 242 242 243 243 244 245 246 248 251 253 254 255 256 257 258 259 259 259 259 259 260 260 260 261 262 264 264 264 264 265 266 268 269 267 265 266 268 270 272 273 274 273 272 271 269 268 268 268 267 266 267 268 268 266
228 229 230 230 230 230 229 229 229 230 231 232 233 233 233 233 233 234 234 236 238 239 240 240 240 240 241 241 241 241 241 241 241 242 242 243 244 247 249 252 255 257 258 257 255 255 257 258 260 261 262 262 263 264 265 265 264 265 265 265 265 265 265 264 263 261 261 263 267 270 272 272 272 270 270 271 269 267 265 265 265 265 265 266 267 268
228 228 229 229 229 229 228 227 227 228 228 229 229 229 230 230 230 231 232 234 235 237 238 239 239 239 239 240 241 241 241 242 243 243 245 245 246 248 251 252 254 256 256 256 257 259 261 263 264 266 266 267 267 266 266 266 266 265 265 265 265 265 265 264 263 261 261 262 265 268 270 271 270 269 269 270 269 267 265 263 262 262 263 264 266 267
230 229 229 228 228 228 226 226 226 226 226 227 227 228 230 231 232 232 232 234 237 238 239 239 238 238 238 238 240 241 242 243 244 245 247 249 250 252 254 255 256 255 254 256 258 262 266 268 270 270 269 268 267 266 265 266 266 266 267 266 265 264 263 264 264 264 265 265 265 266 267 267 268 268 268 267 266 265 263 261 260 258 258 260 262 263
230 229 228 226 226 226 225 224 224 225 226 227 229 231 233 236 237 237 235 235 235 237 239 238 237 238 239 239 240 241 242 243 244 245 247 250 253 256 258 259 258 257 257 258 261 264 268 271 272 272 271 269 267 264 262 261 261 262 264 264 263 262 261 261 262 262 264 264 264 263 262 263 263 263 264 264 263 261 260 259 257 256 257 259 260 260
229 227 226 225 226 226 226 224 224 224 224 225 228 231 233 234 235 236 234 232 233 236 237 233 230 231 236 238 239 242 244 246 248 250 251 253 255 257 258 258 259 259 259 261 263 266 269 273 276 276 276 276 274 271 267 265 264 265 267 267 268 267 265 263 262 262 262 263 263 263 261 259 257 257 258 260 261 261 260 259 259 259 259 260 260 259
Height
5719 5723 5728 5733 5736 5738 5741 5743 5745 5748 5750 5752 5755 5757 5759 5762 5764 5766 5768 5770 5772 5775 5778 5782 5783 5784 5785 5786 5787 5789 5790 5792 5792 5793 5794 5796 5796 5796 5797 5797 5798 5799 5799 5798 5797 5798 5799 5798 5798 5798 5799 5800 5800 5800 5800 5800 5800 5800 5801 5801 5801 5800 5799 5798 5798 5798 5797 5797 5796 5794 5793 5792 5792 5791 5791 5791 5792 5792 5792 5791 5791 5791 5791 5792 5793 5794
5716 5721 5726 5730 5732 5734 5737 5740 5742 5745 5747 5750 5752 5754 5757 5760 5762 5763 5765 5767 5770 5774 5777 5779 5781 5782 5783 5784 5785 5787 5787 5788 5790 5791 5793 5793 5794 5794 5795 5795 5796 5796 5796 5795 5795 5797 5797 5796 5796 5797 5797 5798 5798 5798 5797 5797 5797 5797 5798 5797 5797 5797 5796 5796 5795 5796 5796 5794 5793 5793 5791 5790 5789 5789 5789 5789 5789 5789 5790 5789 5789 5790 5790 5791 5792 5793
5714 5719 5723 5725 5728 5731 5734 5736 5739 5742 5744 5747 5749 5751 5755 5757 5759 5761 5763 5765 5769 5773 5775 5777 5778 5780 5781 5782 5783 5783 5784 5786 5788 5789 5790 5791 5791 5792 5793 5793 5794 5794 5793 5793 5793 5794 5794 5794 5795 5795 5795 5795 5795 5795 5795 5794 5794 5794 5794 5793 5793 5793 5792 5792 5792 5793 5792 5791 5791 5791 5790 5788 5788 5787 5787 5787 5787 5787 5787 5787 5788 5788 5788 5788 5789 5791
5712 5715 5718 5721 5724 5728 5731 5734 5737 5740 5742 5744 5746 5749 5753 5755 5757 5759 5760 5763 5768 5771 5773 5774 5776 5777 5778 5779 5780 5781 5782 5784 5786 5787 5788 5789 5789 5790 5790 5791 5791 5791 5791 5791 5791 5792 5793 5793 5793 5793 5792 5792 5792 5793 5792 5792 5792 5791 5791 5791 5790 5790 5790 5789 5789 5789 5789 5789 5790 5790 5789 5788 5787 5787 5786 5785 5784 5783 5784 5785 5785 5786 5786 5786 5787 5788
5708 5711 5714 5717 5721 5725 5728 5731 5735 5737 5739 5741 5744 5747 5751 5753 5755 5756 5758 5762 5767 5769 5771 5772 5773 5774 5775 5777 5778 5779 5781 5783 5784 5785 5786 5787 5787 5788 5788 5789 5789 5789 5789 5789 5790 5791 5792 5792 5791 5791 5790 5790 5790 5790 5790 5790 5789 5789 5789 5789 5788 5788 5788 5788 5787 5786 5786 5788 5788 5788 5787 5787 5786 5786 5785 5784 5782 5780 5780 5782 5784 5784 5784 5785 5785 5786
5703 5707 5711 5715 5718 5722 5725 5729 5732 5734 5737 5739 5742 5746 5749 5751 5752 5753 5756 5761 5765 5767 5769 5769 5770 5770 5772 5774 5776 5778 5780 5782 5783 5783 5784 5785 5786 5786 5787 5788 5788 5788 5788 5788 5788 5789 5790 5790 5790 5789 5789 5788 5788 5787 5787 5787 5787 5787 5787 5786 5786 5786 5786 5786 5785 5784 5785 5786 5785 5784 5785 5786 5786 5786 5784 5783 5782 5779 5778 5779 5781 5782 5782 5783 5783 5784
5700 5704 5709 5712 5715 5718 5721 5725 5729 5732 5734 5737 5741 5744 5746 5748 5750 5752 5755 5759 5763 5765 5767 5767 5768 5768 5771 5772 5774 5776 5779 5780 5781 5781 5782 5783 5784 5784 5785 5785 5786 5786 5786 5786 5786 5788 5788 5788 5788 5788 5787 5786 5786 5785 5785 5784 5784 5784 5784 5784 5783 5783 5784 5783 5782 5782 5783 5784 5783 5783 5784 5785 5785 5785 5784 5783 5782 5780 5778 5778 5779 5780 5780 5781 5781 5782
5697 5701 5705 5709 5712 5715 5718 5722 5726 5729 5732 5735 5740 5742 5744 5747 5749 5751 5754 5757 5760 5763 5765 5766 5766 5767 5770 5771 5772 5775 5777 5778 5779 5779 5780 5781 5782 5782 5783 5783 5783 5784 5784 5784 5784 5785 5786 5786 5786 5786 5785 5784 5784 5783 5782 5782 5782 5782 5782 5782 5781 5781 5781 5781 5781 5781 5781 5781 5782 5783 5784 5783 5783 5783 5783 5781 5780 5779 5778 5777 5777 5778 5779 5779 5780 5781
5695 5699 5702 5706 5709 5713 5716 5720 5724 5727 5731 5735 5738 5740 5742 5745 5747 5749 5752 5755 5758 5760 5762 5763 5764 5766 5767 5769 5772 5774 5774 5775 5776 5777 5778 5779 5780 5780 5780 5781 5781 5782 5782 5782 5782 5783 5783 5783 5783 5783 5783 5782 5782 5782 5781 5781 5780 5780 5780 5780 5779 5779 5779 5780 5780 5780 5779 5779 5780 5782 5782 5781 5780 5781 5781 5780 5779 5778 5777 5776 5775 5777 5778 5778 5778 5778
5693 5696 5699 5703 5707 5711 5715 5718 5722 5726 5730 5733 5735 5737 5740 5742 5744 5747 5750 5752 5755 5757 5759 5761 5762 5764 5765 5768 5771 5773 5772 5772 5773 5775 5776 5777 5778 5779 5779 5780 5780 5780 5780 5780 5780 5780 5781 5781 5781 5781 5781 5781 5781 5781 5780 5779 5779 5778 5778 5778 5778 5778 5778 5778 5778 5778 5777 5777 5778 5780 5780 5779 5778 5779 5778 5778 5778 5778 5778 5776 5775 5776 5777 5776 5776 5776
5690 5693 5696 5700 5704 5709 5713 5716 5720 5725 5729 5731 5733 5735 5737 5740 5743 5745 5747 5749 5751 5753 5756 5758 5760 5762 5764 5766 5769 5771 5771 5771 5772 5774 5775 5775 5776 5777 5778 5778 5778 5778 5778 5778 5779 5778 5778 5779 5779 5779 5780 5780 5779 5778 5778 5777 5777 5776 5776 5776 5776 5776 5777 5776 5776 5775 5774 5775 5776 5777 5777 5776 5776 5776 5776 5776 5776 5776 5776 5775 5775 5775 5775 5775 5775 5775
5687 5690 5694 5698 5702 5706 5709 5713 5717 5721 5725 5727 5729 5732 5734 5737 5739 5742 5744 5745 5748 5750 5753 5755 5757 5760 5763 5764 5766 5769 5769 5770 5771 5772 5773 5774 5774 5775 5775 5776 5776 5776 5776 5776 5777 5777 5776 5777 5777 5777 5778 5777 5777 5776 5776 5775 5774 5774 5774 5774 5774 5774 5774 5774 5772 5772 5772 5772 5773 5774 5774 5773 5773 5774 5773 5773 5773 5773 5774 5773 5773 5774 5774 5773 5774 5775
5685 5689 5692 5696 5700 5704 5707 5710 5713 5717 5721 5723 5725 5727 5730 5733 5736 5738 5740 5742 5745 5748 5750 5753 5755 5758 5760 5761 5764 5766 5767 5768 5770 5770 5771 5772 5772 5772 5773 5773 5773 5774 5774 5775 5775 5775 5774 5775 5775 5775 5775 5775 5775 5774 5773 5772 5772 5771 5771 5771 5771 5771 5771 5770 5769 5769 5769 5769 5769 5770 5770 5769 5769 5770 5769 5769 5770 5771 5771 5771 5771 5772 5772 5772 5773 5774
5683 5687 5691 5695 5699 5702 5706 5708 5711 5715 5717 5719 5721 5724 5728 5731 5733 5735 5737 5739 5743 5746 5748 5751 5753 5755 5757 5759 5761 5763 5765 5766 5768 5769 5769 5770 5770 5770 5771 5771 5771 5772 5772 5773 5773 5773 5773 5773 5773 5773 5773 5773 5772 5771 5770 5769 5768 5768 5768 5768 5768 5768 5767 5766 5765 5765 5765 5764 5764 5765 5765 5765 5765 5765 5765 5765 5766 5767 5769 5769 5769 5770 5770 5771 5771 5772
5683 5686 5690 5695 5698 5701 5705 5707 5711 5714 5717 5719 5722 5725 5729 5731 5732 5734 5736 5739 5742 5745 5747 5749 5750 5751 5754 5756 5758 5761 5763 5764 5766 5767 5767 5768 5768 5769 5769 5769 5770 5770 5771 5771 5771 5771 5771 5771 5771 5770 5770 5770 5769 5768 5767 5766 5765 5764 5764 5764 5764 5764 5763 5762 5760 5760 5760 5760 5759 5759 5760 5760 5760 5761 5762 5762 5762 5764 5766 5766 5767 5768 5768 5769 5770 5771
5683 5686 5690 5694 5697 5700 5704 5706 5710 5713 5716 5719 5722 5725 5727 5729 5731 5733 5736 5739 5741 5743 5745 5746 5746 5748 5751 5753 5755 5758 5760 5762 5763 5764 5765 5766 5766 5767 5767 5768 5768 5768 5768 5769 5769 5769 5769 5768 5768 5768 5767 5767 5766 5765 5764 5763 5762 5761 5760 5760 5760 5760 5759 5758 5756 5755 5754 5754 5753 5753 5755 5755 5756 5757 5758 5758 5759 5760 5762 5764 5765 5766 5767 5768 5769 5769
5682 5686 5689 5693 5696 5699 5702 5704 5708 5711 5715 5718 5720 5722 5725 5727 5729 5732 5734 5736 5738 5740 5741 5742 5744 5745 5748 5751 5752 5755 5757 5759 5760 5761 5762 5763 5764 5765 5765 5766 5766 5766 5766 5767 5767 5767 5767 5766 5766 5766 5765 5764 5763 5762 5761 5760 5759 5758 5757 5756 5756 5755 5754 5753 5752 5750 5750 5750 5749 5749 5751 5752 5752 5754 5755 5755 5756 5757 5759 5760 5761 5763 5764 5766 5767 5766
5681 5685 5688 5692 5695 5697 5700 5702 5706 5710 5714 5717 5719 5721 5723 5725 5726 5729 5731 5733 5735 5736 5738 5740 5741 5743 5745 5748 5750 5752 5754 5756 5757 5758 5759 5760 5762 5762 5763 5763 5763 5764 5764 5764 5765 5765 5764 5764 5764 5763 5762 5761 5760 5759 5759 5758 5757 5756 5755 5754 5752 5751 5750 5748 5747 5746 5746 5747 5746 5746 5748 5748 5749 5751 5752 5753 5754 5755 5756 5757 5758 5759 5760 5762 5764 5764
5680 5683 5686 5690 5693 5695 5698 5701 5704 5708 5712 5715 5718 5720 5721 5722 5724 5726 5728 5730 5732 5733 5735 5737 5739 5741 5743 5745 5747 5749 5751 5752 5754 5755 5756 5758 5759 5760 5760 5761 5761 5761 5762 5762 5763 5763 5762 5762 5761 5759 5759 5758 5757 5757 5756 5755 5755 5754 5752 5751 5749 5748 5747 5745 5743 5742 5742 5742 5741 5742 5743 5744 5746 5747 5748 5749 5751 5751 5752 5753 5754 5755 5757 5759 5761 5761
5678 5681 5684 5687 5690 5693 5696 5699 5702 5705 5708 5711 5714 5716 5717 5719 5722 5724 5726 5728 5730 5731 5733 5735 5737 5739 5741 5743 5745 5747 5748 5750 5751 5753 5754 5756 5757 5757 5757 5758 5758 5759 5760 5760 5760 5760 5760 5759 5758 5756 5756 5755 5755 5755 5754 5753 5752 5751 5750 5749 5747 5746 5744 5742 5740 5739 5738 5738 5738 5738 5739 5741 5742 5743 5746 5747 5747 5747 5748 5750 5751 5752 5754 5756 5757 5758
5676 5679 5682 5685 5689 5692 5694 5697 5700 5703 5706 5709 5711 5713 5715 5718 5720 5723 5725 5727 5728 5729 5731 5732 5734 5737 5739 5741 5742 5744 5746 5747 5749 5751 5752 5753 5754 5754 5755 5755 5756 5757 5757 5758 5757 5757 5757 5756 5755 5754 5754 5753 5753 5752 5752 5751 5750 5749 5748 5746 5745 5743 5741 5739 5737 5736 5735 5735 5734 5734 5735 5737 5738 5740 5743 5745 5744 5743 5744 5746 5748 5749 5751 5753 5754 5755
5674 5677 5681 5684 5687 5689 5692 5696 5699 5702 5705 5708 5710 5713 5715 5717 5719 5721 5722 5724 5725 5727 5729 5730 5732 5735 5737 5739 5740 5742 5744 5745 5747 5748 5750 5751 5751 5751 5752 5753 5754 5754 5754 5755 5755 5754 5754 5753 5752 5752 5751 5751 5751 5750 5749 5749 5748 5747 5746 5744 5743 5741 5738 5736 5734 5734 5734 5732 5732 5732 5732 5733 5735 5736 5738 5740 5740 5741 5742 5743 5745 5746 5748 5750 5751 5752
5672 5675 5678 5681 5685 5687 5690 5694 5697 5700 5702 5705 5707 5710 5712 5714 5716 5718 5719 5721 5723 5725 5726 5728 5730 5732 5734 5736 5738 5740 5741 5743 5745 5746 5748 5748 5749 5749 5750 5750 5751 5751 5752 5752 5752 5752 5752 5751 5750 5750 5750 5749 5749 5748 5747 5747 5746 5745 5744 5742 5741 5738 5736 5734 5733 5733 5732 5730 5730 5731 5731 5731 5733 5734 5735 5737 5738 5739 5740 5742 5743 5744 5746 5747 5749 5749
5671 5673 5676 5679 5682 5685 5688 5691 5694 5697 5699 5701 5703 5706 5708 5710 5713 5715 5717 5718 5720 5722 5723 5725 5727 5729 5731 5734 5736 5737 5739 5741 5742 5744 5745 5746 5746 5747 5748 5748 5749 5749 5749 5750 5750 5750 5749 5749 5748 5748 5747 5747 5747 5746 5745 5745 5744 5743 5742 5740 5739 5736 5734 5733 5732 5732 5730 5729 5728 5728 5728 5729 5731 5732 5734 5735 5736 5737 5739 5741 5742 5744 5745 5746 5747 5748
5669 5671 5673 5676 5679 5682 5685 5688 5691 5694 5696 5698 5701 5703 5706 5708 5710 5712 5714 5716 5717 5719 5721 5722 5724 5727 5729 5731 5733 5735 5737 5738 5740 5742 5743 5743 5744 5745 5746 5746 5747 5747 5747 5748 5748 5748 5747 5747 5746 5746 5745 5745 5744 5744 5743 5743 5742 5741 5740 5739 5737 5735 5733 5732 5732 5731 5729 5728 5727 5726 5726 5727 5728 5730 5731 5733 5734 5735 5737 5739 5741 5742 5743 5744 5745 5747
5668 5670 5672 5674 5676 5680 5683 5685 5688 5691 5693 5696 5699 5702 5704 5705 5707 5709 5711 5713 5715 5717 5719 5720 5722 5724 5726 5728 5730 5733 5734 5736 5738 5739 5740 5741 5742 5742 5743 5743 5744 5745 5745 5745 5745 5745 5745 5744 5744 5744 5743 5743 5742 5742 5742 5741 5741 5740 5738 5737 5736 5734 5733 5731 5730 5730 5729 5728 5727 5726 5725 5726 5726 5727 5729 5730 5732 5733 5734 5736 5738 5740 5740 5741 5743 5745
5667 5670 5671 5673 5676 5679 5682 5685 5687 5690 5692 5695 5697 5699 5701 5703 5705 5707 5708 5710 5713 5715 5717 5718 5720 5722 5725 5726 5728 5730 5732 5733 5735 5736 5737 5738 5739 5740 5740 5741 5741 5742 5743 5743 5743 5743 5742 5742 5742 5742 5742 5741 5741 5740 5740 5740 5739 5738 5737 5736 5734 5733 5732 5731 5730 5729 5728 5727 5726 5725 5725 5725 5726 5727 5728 5729 5731 5732 5733 5735 5737 5737 5738 5738 5740 5743
5666 5668 5670 5672 5675 5678 5681 5684 5686 5689 5691 5693 5695 5697 5699 5701 5703 5704 5706 5709 5711 5713 5714 5716 5718 5721 5723 5725 5726 5728 5729 5731 5733 5733 5734 5736 5737 5738 5738 5738 5739 5740 5740 5740 5740 5740 5740 5740 5740 5740 5740 5739 5739 5739 5738 5738 5738 5737 5736 5734 5733 5733 5732 5731 5729 5728 5727 5727 5726 5725 5725 5725 5726 5727 5728 5728 5729 5730 5731 5733 5734 5735 5736 5737 5738 5739
5665 5667 5669 5671 5675 5677 5680 5682 5684 5686 5689 5691 5693 5695 5697 5699 5701 5703 5705 5707 5708 5710 5712 5714 5716 5719 5721 5723 5724 5725 5727 5729 5730 5731 5732 5733 5734 5735 5736 5736 5737 5737 5737 5737 5738 5738 5738 5738 5738 5738 5738 5738 5737 5737 5736 5736 5736 5735 5734 5733 5732 5731 5731 5730 5729 5727 5726 5726 5726 5725 5725 5725 5725 5726 5727 5727 5728 5728 5729 5730 5732 5733 5734 5735 5736 5737
5664 5666 5668 5670 5673 5676 5678 5680 5682 5685 5687 5689 5691 5693 5695 5697 5699 5701 5703 5705 5706 5708 5710 5712 5714 5716 5719 5720 5721 5723 5725 5727 5728 5729 5730 5731 5732 5733 5734 5734 5735 5735 5735 5735 5735 5735 5736 5736 5736 5736 5736 5736 5736 5735 5734 5734 5734 5734 5733 5732 5731 5730 5729 5729 5728 5726 5725 5725 5725 5725 5724 5724 5724 5724 5725 5725 5726 5726 5727 5728 5729 5730 5731 5732 5733 5735
5663 5666 5667 5669 5672 5674 5676 5678 5681 5683 5685 5687 5689 5691 5693 5696 5697 5699 5701 5703 5704 5706 5708 5710 5712 5714 5716 5718 5719 5721 5722 5724 5726 5727 5728 5728 5729 5731 5732 5732 5732 5732 5732 5733 5733 5733 5733 5733 5734 5734 5734 5734 5734 5733 5733 5733 5732 5732 5732 5731 5730 5729 5728 5727 5726 5725 5724 5724 5724 5724 5723 5723 5723 5722 5723 5723 5723 5724 5725 5726 5726 5727 5728 5730 5731 5733
5662 5664 5666 5668 5671 5672 5674 5677 5679 5681 5683 5685 5687 5689 5691 5694 5696 5697 5699 5700 5702 5704 5705 5707 5709 5711 5714 5716 5717 5719 5720 5722 5723 5724 5725 5726 5727 5729 5729 5730 5730 5730 5730 5730 5731 5731 5731 5731 5731 5732 5732 5732 5732 5731 5731 5731 5731 5730 5730 5729 5729 5728 5727 5726 5725 5724 5723 5723 5722 5722 5722 5722 5721 5721 5721 5721 5720 5721 5723 5724 5725 5725 5726 5727 5729 5730
5660 5662 5664 5667 5669 5671 5672 5675 5677 5679 5681 5682 5684 5686 5688 5691 5693 5695 5696 5698 5700 5702 5704 5705 5707 5709 5711 5712 5714 5716 5717 5719 5720 5721 5723 5724 5725 5726 5727 5727 5728 5728 5728 5728 5728 5729 5729 5729 5729 5729 5729 5729 5729 5729 5729 5729 5728 5728 5728 5727 5727 5727 5726 5725 5724 5723 5722 5722 5721 5721 5721 5720 5720 5719 5719 5718 5717 5719 5720 5722 5723 5724 5724 5725 5726 5727
5658 5660 5662 5664 5666 5668 5670 5672 5675 5676 5678 5679 5681 5684 5686 5688 5690 5692 5694 5696 5698 5700 5702 5703 5704 5706 5707 5709 5711 5713 5715 5716 5717 5719 5720 5721 5722 5723 5724 5725 5725 5726 5726 5726 5726 5726 5726 5726 5726 5727 5727 5727 5727 5727 5727 5727 5726 5726 5726 5725 5725 5725 5724 5724 5723 5722 5721 5721 5720 5719 5719 5719 5718 5718 5717 5716 5716 5717 5718 5719 5720 5722 5722 5723 5724 5724
5655 5657 5660 5662 5664 5666 5668 5670 5672 5673 5675 5678 5680 5682 5684 5686 5688 5689 5691 5693 5695 5697 5699 5700 5702 5703 5705 5706 5708 5710 5712 5713 5715 5716 5717 5718 5719 5721 5721 5722 5723 5723 5723 5724 5723 5723 5724 5724 5724 5724 5724 5724 5724 5725 5725 5724 5724 5724 5724 5724 5723 5723 5722 5722 5722 5721 5720 5720 5719 5718 5718 5717 5717 5716 5716 5716 5716 5716 5717 5717 5718 5719 5720 5720 5721 5721
5653 5655 5657 5659 5661 5663 5665 5667 5668 5670 5672 5675 5677 5679 5681 5683 5685 5687 5688 5690 5692 5694 5695 5697 5699 5701 5702 5704 5705 5707 5709 5711 5712 5713 5714 5715 5716 5718 5719 5719 5720 5720 5721 5721 5721 5721 5721 5721 5722 5721 5721 5721 5722 5722 5722 5722 5722 5722 5722 5721 5721 5721 5720 5720 5720 5720 5719 5719 5718 5718 5717 5716 5716 5715 5715 5715 5715 5716 5716 5716 5716 5717 5717 5717 5718 5718
5651 5653 5655 5657 5658 5660 5662 5664 5666 5667 5670 5672 5674 5676 5678 5680 5682 5684 5685 5687 5688 5690 5692 5694 5696 5697 5699 5701 5702 5704 5706 5707 5709 5711 5711 5712 5713 5714 5715 5716 5716 5717 5717 5718 5718 5718 5718 5718 5719 5719 5719 5719 5719 5719 5720 5720 5720 5720 5719 5719 5719 5719 5718 5718 5718 5718 5717 5717 5717 5716 5716 5715 5715 5715 5714 5714 5714 5714 5714 5714 5714 5714 5714 5714 5715 5716
5648 5650 5652 5654 5656 5657 5659 5661 5663 5664 5667 5669 5672 5673 5675 5677 5679 5680 5682 5683 5685 5686 5688 5690 5692 5693 5695 5697 5698 5700 5702 5704 5706 5707 5708 5708 5708 5710 5711 5712 5712 5713 5714 5714 5715 5715 5715 5715 5716 5716 5716 5716 5716 5717 5717 5717 5718 5717 5717 5716 5716 5716 5716 5716 5716 5715 5715 5715 5715 5715 5714 5714 5714 5713 5713 5713 5713 5712 5711 5711 5711 5711 5712 5712 5713 5713
5644 5646 5648 5650 5652 5654 5656 5658 5660 5662 5664 5666 5668 5669 5671 5673 5675 5677 5678 5679 5682 5684 5685 5686 5688 5689 5691 5692 5694 5697 5699 5700 5702 5704 5704 5704 5704 5705 5706 5707 5709 5709 5710 5711 5711 5712 5712 5712 5713 5713 5714 5714 5714 5714 5714 5714 5715 5715 5714 5714 5713 5713 5713 5713 5713 5713 5713 5713 5713 5712 5712 5712 5712 5712 5711 5711 5711 5710 5710 5709 5709 5709 5709 5709 5709 5709
5641 5643 5645 5647 5649 5651 5653 5655 5657 5659 5660 5662 5664 5665 5667 5669 5671 5673 5675 5677 5679 5680 5681 5681 5683 5685 5687 5689 5691 5693 5695 5696 5698 5700 5700 5701 5701 5702 5703 5704 5705 5706 5707 5707 5708 5709 5710 5710 5710 5711 5711 5711 5711 5711 5711 5711 5712 5712 5712 5711 5711 5710 5710 5710 5710 5710 5710 5711 5710 5710 5710 5710 5710 5710 5710 5709 5709 5708 5708 5707 5707 5706 5706 5706 5707 5707
5638 5640 5641 5643 5645 5648 5650 5652 5654 5655 5657 5659 5661 5662 5664 5666 5668 5670 5671 5673 5675 5676 5676 5677 5678 5681 5683 5685 5687 5689 5691 5692 5694 5695 5696 5697 5699 5699 5700 5701 5702 5703 5704 5704 5705 5706 5707 5708 5708 5708 5708 5707 5707 5707 5707 5707 5708 5709 5708 5708 5708 5707 5707 5707 5707 5707 5707 5708 5708 5708 5707 5708 5708 5707 5708 5707 5707 5706 5706 5705 5705 5704 5704 5704 5704 5705
5634 5636 5638 5640 5642 5644 5646 5648 5650 5653 5654 5656 5658 5659 5661 5663 5665 5666 5668 5669 5671 5672 5673 5674 5675 5677 5679 5681 5683 5685 5687 5688 5690 5691 5692 5694 5695 5696 5697 5698 5699 5699 5700 5701 5701 5702 5703 5704 5704 5705 5704 5704 5704 5704 5704 5704 5705 5705 5705 5705 5705 5705 5705 5705 5705 5705 5704 5704 5705 5705 5705 5705 5705 5705 5705 5705 5704 5704 5703 5703 5703 5702 5702 5702 5702 5703
5631 5633 5635 5637 5639 5641 5643 5645 5648 5650 5651 5653 5655 5656 5658 5660 5662 5663 5664 5665 5667 5669 5670 5671 5672 5674 5676 5678 5679 5681 5683 5684 5686 5687 5689 5690 5691 5692 5693 5694 5695 5695 5696 5697 5698 5698 5699 5700 5700 5701 5701 5701 5701 5701 5701 5701 5701 5702 5702 5702 5702 5702 5702 5702 5702 5702 5702 5701 5702 5702 5702 5702 5702 5702 5702 5702 5702 5701 5701 5700 5700 5699 5699 5700 5700 5701
5628 5630 5632 5634 5636 5638 5640 5642 5644 5646 5648 5649 5651 5653 5654 5656 5658 5659 5660 5662 5664 5665 5667 5668 5670 5671 5673 5675 5676 5678 5679 5681 5682 5684 5685 5686 5687 5688 5689 5690 5691 5692 5693 5693 5694 5694 5695 5695 5695 5696 5697 5698 5698 5698 5698 5698 5698 5699 5699 5699 5699 5699 5699 5699 5699 5699 5699 5699 5699 5699 5699 5699 5699 5699 5699 5699 5698 5698 5698 5698 5697 5696 5696 5697 5698 5698
5625 5627 5629 5631 5633 5635 5637 5639 5641 5643 5644 5646 5648 5650 5651 5653 5655 5656 5657 5659 5660 5662 5664 5665 5667 5668 5670 5671 5673 5674 5675 5677 5678 5680 5681 5682 5683 5684 5685 5686 5687 5688 5689 5690 5690 5690 5690 5690 5691 5691 5692 5693 5693 5694 5694 5694 5694 5695 5695 5696 5696 5695 5695 5696 5696 5696 5696 5696 5696 5696 5696 5696 5696 5696 5696 5696 5695 5695 5695 5695 5694 5694 5693 5693 5694 5695
5623 5625 5626 5628 5630 5632 5634 5636 5638 5640 5642 5643 5645 5647 5648 5650 5651 5653 5654 5656 5657 5659 5660 5662 5663 5665 5666 5668 5669 5670 5672 5673 5674 5676 5677 5678 5679 5680 5681 5682 5683 5684 5685 5686 5686 5686 5686 5686 5686 5687 5687 5688 5688 5689 5689 5690 5690 5691 5691 5691 5691 5691 5692 5692 5692 5692 5692 5692 5692 5692 5692 5692 5692 5692 5692 5692 5693 5692 5691 5691 5691 5691 5690 5690 5690 5691
5620 5622 5624 5626 5628 5629 5632 5634 5635 5637 5639 5641 5643 5644 5646 5647 5648 5650 5651 5653 5654 5655 5657 5658 5659 5661 5662 5664 5665 5667 5668 5669 5671 5672 5673 5674 5675 5676 5677 5678 5679 5679 5680 5681 5682 5682 5682 5682 5682 5682 5683 5683 5684 5684 5684 5685 5685 5686 5687 5687 5687 5687 5688 5688 5688 5688 5688 5688 5688 5688 5688 5688 5688 5688 5688 5688 5688 5688 5688 5688 5687 5686 5686 5686 5686 5686
5618 5620 5621 5623 5625 5627 5629 5631 5633 5634 5636 5638 5640 5642 5643 5644 5646 5647 5649 5650 5651 5652 5654 5655 5656 5658 5659 5660 5662 5663 5665 5666 5667 5669 5670 5671 5672 5673 5674 5674 5675 5675 5676 5676 5677 5677 5677 5678 5678 5679 5679 5679 5679 5679 5679 5680 5680 5681 5681 5682 5683 5683 5683 5683 5683 5684 5684 5684 5684 5684 5684 5683 5683 5683 5683 5683 5683 5683 5684 5684 5683 5683 5682 5682 5682 5682
5615 5617 5619 5621 5622 5624 5626 5628 5630 5632 5634 5636 5637 5639 5641 5642 5643 5645 5646 5648 5649 5650 5651 5653 5654 5655 5656 5658 5659 5661 5662 5663 5664 5665 5666 5667 5668 5669 5670 5670 5671 5672 5672 5673 5673 5673 5674 5674 5674 5674 5674 5674 5674 5674 5675 5675 5675 5675 5676 5677 5677 5678 5678 5678 5678 5678 5678 5679 5679 5679 5679 5679 5678 5678 5678 5678 5679 5678 5678 5678 5679 5679 5679 5678 5678 5678
5612 5614 5616 5618 5619 5621 5623 5626 5628 5629 5631 5633 5635 5636 5638 5639 5641 5642 5644 5645 5647 5648 5649 5650 5651 5653 5654 5655 5657 5658 5659 5660 5661 5662 5663 5664 5665 5666 5667 5667 5668 5669 5670 5670 5670 5670 5670 5671 5670 5670 5670 5670 5670 5670 5670 5670 5670 5671 5671 5671 5672 5672 5673 5673 5673 5673 5673 5673 5673 5673 5673 5673 5673 5673 5672 5673 5673 5673 5673 5673 5674 5674 5674 5674 5674 5674
5608 5611 5613 5614 5616 5618 5621 5623 5625 5627 5629 5630 5632 5634 5635 5637 5638 5639 5641 5643 5644 5646 5647 5648 5649 5651 5652 5653 5654 5655 5656 5657 5658 5659 5660 5661 5662 5663 5664 5664 5665 5666 5667 5667 5667 5667 5667 5667 5667 5667 5666 5666 5666 5666 5666 5667 5667 5667 5667 5667 5667 5667 5667 5668 5668 5668 5667 5667 5667 5667 5667 5667 5667 5667 5668 5668 5668 5668 5668 5668 5668 5669 5669 5669 5669 5669